Adrian, MI

5:17 AM EDT on April 25, 2018 (GMT -0400)
Lenawee County

Weather History for KADG - November, 2013

Change the Weather History Date:

Sunday, November 24, 2013

  Actual Average Record
Temperature  
Mean Temperature 18 °F -  
Max Temperature 24 °F 42 °F 63 °F (2001)
Min Temperature 12 °F 27 °F 0 °F (1950)
Degree Days  
Heating Degree Days 47    
Moisture  
Dew Point 9 °F    
Average Humidity 68    
Maximum Humidity 85    
Minimum Humidity 48    
Precipitation  
Precipitation 0.00 in - - ()
Sea Level Pressure  
Sea Level Pressure 30.58 in    
Wind  
Wind Speed 8 mph (WNW)    
Max Wind Speed 13 mph    
Max Gust Speed 21 mph    
Visibility 10 miles    
Events      
Averages and records for this station are not official NWS values.
T = Trace of Precipitation, MM = Missing Value Source: NWS Daily Summary

Daily Weather History Graph

Daily Weather History Graph

Search for Another Location

Airport or City:

Astronomy

Nov. 24, 2013 Rise Set
Actual Time 7:36 AM EST 5:08 PM EST
Civil Twilight 7:06 AM EST 5:39 PM EST
Nautical Twilight 6:31 AM EST 6:13 PM EST
Astronomical Twilight 5:58 AM EST 6:47 PM EST
Moon 11:36 PM EST (11/24) 12:21 PM EST (11/24)
Length of Visible Light 10h 33m
Length of Day
9h 32m
Waning Gibbous, 61% of the Moon is Illuminated
Nov 24
Waning Gibbous
Nov 25
Last Quarter
Dec 2
New
Dec 9
First Quarter
Dec 17
Full

Hourly Weather History & Observations

Time (EST) Temp. Windchill Dew Point Humidity Pressure Visibility Wind Dir Wind Speed Gust Speed Precip Events Conditions
12:53 AM 17.1 °F 5.8 °F 8.1 °F 68% 30.57 in 10.0 mi North 9.2 mph - N/A   Clear
1:53 AM 16.0 °F 6.3 °F 9.0 °F 74% 30.58 in 10.0 mi NW 6.9 mph - N/A   Clear
2:53 AM 15.1 °F 4.2 °F 8.1 °F 74% 30.59 in 10.0 mi NNW 8.1 mph - N/A   Clear
3:53 AM 15.1 °F 3.3 °F 8.1 °F 74% 30.58 in 10.0 mi NNW 9.2 mph - N/A   Clear
4:53 AM 15.1 °F 5.2 °F 6.1 °F 68% 30.60 in 10.0 mi NNW 6.9 mph - N/A   Clear
5:53 AM 14.0 °F 6.5 °F 5.0 °F 67% 30.61 in 10.0 mi WNW 4.6 mph - N/A   Clear
6:53 AM 12.9 °F 2.6 °F 6.1 °F 74% 30.62 in 10.0 mi WNW 6.9 mph - N/A   Clear
7:53 AM 12.9 °F 5.2 °F 7.0 °F 77% 30.63 in 10.0 mi WNW 4.6 mph - N/A   Clear
8:53 AM 17.1 °F 5.8 °F 9.0 °F 71% 30.65 in 10.0 mi NW 9.2 mph - N/A   Clear
9:53 AM 21.0 °F 9.3 °F 7.0 °F 55% 30.65 in 10.0 mi NNW 11.5 mph 18.4 mph N/A   Clear
10:53 AM 21.9 °F 9.8 °F 5.0 °F 48% 30.65 in 10.0 mi NNW 12.7 mph 18.4 mph N/A   Partly Cloudy
11:53 AM 21.9 °F 10.4 °F 6.1 °F 51% 30.63 in 10.0 mi NW 11.5 mph - N/A   Mostly Cloudy
12:53 PM 24.1 °F 13.1 °F 7.0 °F 48% 30.61 in 10.0 mi NW 11.5 mph 19.6 mph N/A   Overcast
1:53 PM 23.0 °F 11.7 °F 9.0 °F 55% 30.60 in 10.0 mi WNW 11.5 mph - N/A   Overcast
2:53 PM 24.1 °F 12.5 °F 10.9 °F 57% 30.58 in 10.0 mi WNW 12.7 mph - N/A   Scattered Clouds
3:53 PM 24.1 °F 13.7 °F 10.9 °F 57% 30.58 in 10.0 mi WNW 10.4 mph 20.7 mph N/A   Overcast
4:53 PM 23.0 °F 13.9 °F 10.9 °F 60% 30.58 in 10.0 mi NW 8.1 mph - N/A   Mostly Cloudy
5:53 PM 21.9 °F 15.7 °F 12.0 °F 66% 30.58 in 10.0 mi NNW 4.6 mph - N/A   Scattered Clouds
6:53 PM 19.0 °F 12.3 °F 12.0 °F 74% 30.56 in 10.0 mi WSW 4.6 mph - N/A   Clear
7:53 PM 18.0 °F - 12.0 °F 78% 30.54 in 10.0 mi Calm Calm - N/A   Clear
8:53 PM 19.9 °F 13.4 °F 16.0 °F 85% 30.52 in 10.0 mi WSW 4.6 mph - N/A   Clear
9:53 PM 19.0 °F 10.0 °F 15.1 °F 85% 30.51 in 10.0 mi SW 6.9 mph - N/A   Clear
10:53 PM 18.0 °F 9.8 °F 12.9 °F 81% 30.49 in 10.0 mi WSW 5.8 mph - N/A   Clear
11:53 PM 18.0 °F 9.8 °F 12.9 °F 81% 30.48 in 10.0 mi WSW 5.8 mph - N/A   Clear